EW8943 Weather Reports


time (UTC)temp
C
wind
direction
speed
KPH
gust
KPH
rain 1hr
cm
rain 24hr
cm
rain mn
cm
humidity
%
barometer
mb
20260504081524 4 287 0.0 1.6 0.00 0.00 0.00 78 1012.6
20260504044557 7 287 0.0 0.0 0.00 0.00 0.00 61 1012.6
20260504043059 8 287 0.0 0.0 0.00 0.00 0.00 60 1012.5
20260504041550 8 287 0.0 1.6 0.00 0.00 0.00 59 1012.3
20260504040111 8 287 1.6 3.2 0.00 0.00 0.00 59 1012.3
20260504034548 8 287 0.0 0.0 0.00 0.00 0.00 58 1012.2
20260504033049 9 287 0.0 0.0 0.00 0.00 0.00 57 1012.1
20260504031555 9 287 0.0 0.0 0.00 0.00 0.00 55 1012.0
20260504030046 10 287 0.0 0.0 0.00 0.00 0.00 54 1012.0
20260504024545 10 287 0.0 0.0 0.00 0.00 0.00 53 1012.0
20260504023045 10 287 0.0 3.2 0.00 0.00 0.00 52 1012.0
20260504021543 10 287 0.0 3.2 0.00 0.00 0.00 51 1012.0
20260504020053 11 287 1.6 4.8 0.00 0.00 0.00 49 1012.0
20260504014544 11 287 1.6 4.8 0.00 0.00 0.00 48 1011.9
20260504013044 11 287 1.6 4.8 0.00 0.00 0.00 47 1011.7
20260504011542 11 287 3.2 4.8 0.00 0.00 0.00 45 1011.6
20260504010042 12 287 3.2 6.4 0.00 0.00 0.00 45 1011.4
20260504004540 12 287 4.8 6.4 0.00 0.00 0.00 44 1011.3
20260504003040 13 287 3.2 6.4 0.00 0.00 0.00 42 1011.1
20260504001548 13 287 3.2 6.4 0.00 0.00 0.00 40 1010.9
20260504000038 13 287 4.8 6.4 0.00 0.00 0.00 39 1010.8
20260503234559 14 287 4.8 8.0 0.00 0.00 0.00 38 1010.7
20260503233044 14 287 4.8 11.3 0.00 0.00 0.00 38 1010.5
20260503231536 15 288 6.4 14.5 0.00 0.00 0.00 38 1010.4
20260503230035 15 286 4.8 12.9 0.00 0.00 0.00 38 1010.4
20260503224535 15 282 4.8 11.3 0.00 0.00 0.00 37 1010.4
20260503223035 15 38 0.0 16.1 0.00 0.00 0.00 37 1010.3
20260503221536 15 297 4.8 12.9 0.00 0.00 0.00 35 1010.3
20260503220033 15 171 1.6 19.3 0.00 0.00 0.00 35 1010.4
20260503214532 15 286 6.4 14.5 0.00 0.00 0.00 35 1010.4
20260503213033 15 286 4.8 11.3 0.00 0.00 0.00 35 1010.4
20260503211530 15 297 1.6 14.5 0.00 0.00 0.00 38 1010.3
20260503210028 15 287 3.2 16.1 0.00 0.00 0.00 37 1010.4
20260503204528 15 299 4.8 16.1 0.00 0.00 0.00 36 1010.3
20260503203027 15 285 4.8 16.1 0.00 0.00 0.00 37 1010.4
20260503201527 14 282 9.7 17.7 0.00 0.00 0.00 37 1010.6
20260503200028 15 280 4.8 19.3 0.00 0.00 0.00 37 1010.7
20260503194527 15 282 6.4 19.3 0.00 0.00 0.00 37 1010.8
20260503193026 14 302 4.8 14.5 0.00 0.00 0.00 36 1011.1
20260503191530 14 234 8.0 20.9 0.00 0.00 0.00 37 1011.1
20260503190024 15 291 8.0 17.7 0.00 0.00 0.00 36 1011.1
20260503184524 15 338 6.4 17.7 0.00 0.00 0.00 35 1011.2
20260503183022 15 292 3.2 17.7 0.00 0.00 0.00 39 1011.4
20260503181520 15 285 1.6 17.7 0.00 0.00 0.00 38 1011.5
20260503180019 15 311 3.2 16.1 0.00 0.00 0.00 36 1011.6
20260503174518 13 221 1.6 24.1 0.00 0.00 0.00 39 1011.7
20260503173015 13 277 6.4 19.3 0.00 0.00 0.00 41 1011.7
20260503171514 13 296 3.2 24.1 0.00 0.00 0.00 36 1011.8